Meteo Giornale » Osservazioni meteo Francia » Toul-Rosieres
ore: 20:00 - Osservazioni Meteo Toul-Rosieres
Lat. 48° 47' N Lon. 5° 29' E Alt. 285 metri s.l.m.
25 °C
Sereno
Temp. 24 Ore
11 °C
27 °C
Nord-Ovest
7.4 Km/h
Dew point 12 °C
Umidità 44 %
Visibilità 10 Km
Il sole sorge alle ore 06:55
Il sole tramonta alle ore 20:21
| Data e Ora | Cielo e Fenomeni | T °C | DP °C | Um. % | Pres. hPa | Vis. km | Vento km/h | |
|---|---|---|---|---|---|---|---|---|
| Oggi h: 20:00 | Sereno | 25 | 12 | 44 | 1020 | 10 | NO 7.4 | |
| Oggi h: 19:30 | Sereno | 26 | 11 | 39 | 1020 | 10 | N 7.4 | |
| Oggi h: 19:00 | Sereno | 26 | 12 | 41 | 1020 | 10 | N/NO 11.1 | |
| Oggi h: 18:30 | Sereno | 26 | 12 | 41 | 1020 | 10 | NO 9.3 | |
| Oggi h: 18:00 | Sereno | 27 | 12 | 39 | 1020 | 10 | NO 11.1 | |
| Oggi h: 17:30 | Sereno | 27 | 11 | 36 | 1020 | 10 | N/NO 11.1 | |
| Oggi h: 17:00 | Sereno | 27 | 11 | 36 | 1020 | 10 | NO 9.3 | |
| Oggi h: 16:30 | Sereno | 27 | 11 | 36 | 1020 | 10 | NO 9.3 | |
| Oggi h: 16:00 | Sereno | 26 | 12 | 41 | 1021 | 10 | NO 11.1 | |
| Oggi h: 15:30 | Sereno | 26 | 12 | 41 | 1021 | 10 | O/NO 9.3 | |
| Oggi h: 15:00 | Sereno | 25 | 12 | 44 | 1021 | 10 | NO 13 | |
| Oggi h: 14:30 | Sereno | 25 | 12 | 44 | 1022 | 10 | O 11.1 | |
| Oggi h: 14:00 | Sereno | 25 | 13 | 47 | 1022 | 10 | O/NO 13 | |
| Oggi h: 13:30 | Sereno | 24 | 13 | 50 | 1022 | 10 | O/NO 11.1 | |
| Oggi h: 13:00 | Sereno | 24 | 13 | 50 | 1022 | 10 | N 9.3 | |
| Oggi h: 12:30 | Poco Nuvoloso | 24 | 12 | 47 | 1022 | 10 | N 7.4 | |
| Oggi h: 12:00 | Poco Nuvoloso | 24 | 13 | 50 | 1022 | 10 | O/SO 7.4 | |
| Oggi h: 11:30 | Poco Nuvoloso | 23 | 13 | 53 | 1023 | 10 | N 5.5 | |
| Oggi h: 11:00 | Sereno | 23 | 14 | 56 | 1023 | 10 | N 1.8 | |
| Oggi h: 10:30 | Sereno | 22 | 14 | 60 | 1023 | 10 | N 3.7 | |
| Oggi h: 10:00 | Sereno | 20 | 14 | 68 | 1022 | 10 | N 5.5 | |
| Oggi h: 09:30 | Sereno | 19 | 15 | 77 | 1022 | 10 | N 0 | |
| Oggi h: 09:00 | Sereno | 17 | 14 | 82 | 1022 | 10 | N 0 | |
| Oggi h: 08:30 | Sereno | 15 | 14 | 93 | 1022 | 10 | N 3.7 | |
| Oggi h: 08:00 | Sereno | 12 | 12 | 100 | 1022 | 10 | N 3.7 | |
| Oggi h: 07:30 | Sereno | 11 | 11 | 100 | 1022 | 10 | N 0 | |
| Oggi h: 07:00 | Sereno | 12 | 11 | 93 | 1022 | 10 | N 0 | |
| Oggi h: 06:30 | Sereno | 12 | 11 | 93 | 1022 | 10 | N 0 | |
| Oggi h: 06:00 | Sereno | 12 | 12 | 100 | 1022 | 10 | N 0 | |
| Oggi h: 05:30 | Sereno | 12 | 12 | 100 | 1022 | 10 | N 0 | |
| Oggi h: 05:00 | Sereno | 12 | 12 | 100 | 1022 | 10 | N 0 | |
| Oggi h: 04:30 | Sereno | 13 | 12 | 93 | 1022 | 10 | N 0 | |
| Oggi h: 04:00 | Sereno | 13 | 12 | 93 | 1023 | 10 | N 0 | |
| Oggi h: 03:30 | Sereno | 13 | 12 | 93 | 1023 | 10 | N 0 | |
| Oggi h: 03:00 | Sereno | 14 | 12 | 87 | 1023 | 10 | N 0 | |
| Oggi h: 02:30 | Sereno | 14 | 13 | 93 | 1023 | 10 | N 1.8 | |
| Oggi h: 02:00 | Sereno | 15 | 13 | 87 | 1023 | 10 | N 3.7 | |
| Oggi h: 01:30 | Sereno | 15 | 13 | 87 | 1023 | 10 | NO 7.4 | |
| Oggi h: 01:00 | Sereno | 16 | 13 | 82 | 1023 | 10 | NO 7.4 | |
| Oggi h: 00:30 | Sereno | 17 | 13 | 77 | 1023 | 10 | NO 7.4 | |
| Oggi h: 00:00 | Sereno | 17 | 14 | 82 | 1023 | 10 | NO 7.4 | |
| Ieri h: 23:30 | Sereno | 16 | 13 | 82 | 1023 | 10 | N 5.5 | |
| Ieri h: 23:00 | Sereno | 16 | 13 | 82 | 1023 | 10 | N 3.7 | |
| Ieri h: 22:30 | Sereno | 17 | 14 | 82 | 1023 | 10 | N 1.8 | |
| Ieri h: 22:00 | Sereno | 18 | 14 | 77 | 1022 | 10 | N 1.8 | |
| Ieri h: 21:30 | Sereno | 19 | 14 | 72 | 1022 | 10 | N 1.8 | |
| Ieri h: 21:00 | Sereno | 20 | 14 | 68 | 1022 | 10 | N 5.5 | |



